Temperature
15 15 16 16 16 16 17 17 17 17 17 17 17 17 18 18 18 18 18 18 17 17 17 17 17 17 17 17 17 17 16 16 16 16 15 15 15 15 15 15 14 14 14
14 15 16 16 16 16 16 17 17 17 17 17 17 17 17 17 17 18 17 17 17 17 17 17 17 17 17 17 17 16 16 16 16 15 15 15 15 15 15 14 14 14 14
14 15 15 16 16 16 16 16 17 17 17 17 17 17 17 17 17 17 17 17 17 17 17 17 17 17 16 16 16 16 16 16 15 15 15 14 14 15 14 14 14 14 14
14 14 15 15 16 16 16 16 16 17 17 17 17 17 17 17 17 17 17 17 17 17 17 16 16 16 16 16 16 16 16 16 15 15 14 14 14 14 14 14 14 13 13
14 14 15 15 16 16 16 16 16 16 16 17 17 17 17 17 17 17 17 17 17 17 16 16 16 16 16 16 16 16 16 16 15 15 14 14 13 14 14 13 13 13 13
13 14 14 15 15 16 16 16 16 16 16 16 16 16 16 16 17 17 17 17 17 16 16 16 16 16 16 16 16 16 15 15 15 14 14 14 13 14 13 13 13 13 13
13 13 14 14 15 15 15 16 16 16 16 16 16 16 16 16 16 16 16 16 16 16 16 16 16 16 16 16 15 15 15 15 14 14 14 13 13 13 13 13 13 12 12
12 13 13 14 14 15 15 15 15 16 16 16 16 16 16 16 16 16 16 16 16 16 16 16 16 16 15 15 15 15 15 15 14 14 13 13 13 13 13 13 12 12 12
12 12 13 13 14 14 14 15 15 15 15 15 16 16 16 16 16 16 16 16 16 15 15 15 15 15 15 15 15 15 15 14 14 13 13 13 13 13 13 12 12 12 12
12 12 12 12 13 13 14 14 14 14 15 15 15 15 15 15 15 15 15 15 15 15 15 15 15 15 15 15 14 14 14 14 13 13 13 13 13 13 12 12 12 12 12
11 11 11 12 12 12 13 13 14 14 14 14 14 14 15 15 15 15 15 15 15 15 15 15 15 15 14 14 14 14 14 13 13 13 13 13 13 13 12 12 12 12 11
10 10 10 11 11 12 12 12 13 13 13 14 14 14 14 14 14 14 15 15 15 15 15 14 14 14 14 14 14 13 13 13 13 13 13 13 13 12 12 12 12 11 11
9 10 10 10 11 11 11 12 12 12 13 13 13 13 14 14 14 14 14 14 14 14 14 14 14 14 14 13 13 13 13 13 13 12 13 13 13 12 12 12 11 11 11
8 9 9 9 10 10 10 11 11 11 12 12 13 13 13 13 13 14 14 14 14 14 14 14 14 13 13 13 13 13 13 13 13 12 12 13 12 12 12 12 11 11 11
8 8 8 9 9 9 9 10 10 10 11 11 12 12 12 13 13 13 13 13 13 13 13 13 13 13 13 13 13 13 13 13 12 12 12 12 12 12 12 12 11 11 10
7 7 7 8 8 8 9 9 9 9 10 10 10 11 11 12 12 12 12 13 13 13 13 13 13 13 13 13 13 12 12 12 12 12 12 12 12 12 12 11 11 11 10
6 7 7 7 7 8 8 8 8 9 9 9 10 10 11 11 11 11 12 12 12 12 12 12 12 12 12 12 12 12 12 12 12 12 12 12 12 12 12 11 11 11 10
6 6 6 7 7 7 7 7 8 8 8 9 9 9 10 10 10 10 10 11 11 11 11 11 12 12 12 12 11 12 12 12 11 11 11 11 11 11 11 11 11 11 10
6 6 6 6 6 6 7 7 7 7 8 8 8 9 9 9 9 9 10 10 10 10 10 10 11 11 11 11 11 11 11 11 11 11 11 11 11 11 11 11 11 11 10
6 6 5 5 6 6 6 6 6 7 7 7 7 8 8 9 9 9 9 9 9 10 10 10 10 10 10 10 10 10 11 11 11 11 10 10 11 11 11 11 10 10 10
6 5 5 5 5 5 5 6 6 6 7 7 7 7 8 8 8 8 8 9 9 9 9 9 9 9 10 10 9 9 10 10 10 10 10 10 10 10 10 10 10 10 10
5 5 5 5 5 5 5 5 5 6 6 6 6 7 7 7 8 8 8 8 8 8 8 9 9 9 9 9 9 9 9 9 10 10 10 10 10 10 10 10 10 10 10
5 5 5 5 5 5 5 5 5 5 5 5 6 6 7 7 7 8 8 8 8 8 8 8 9 8 8 8 9 9 9 10 10 9 10 10 10 10 10 10 10 10 10
5 5 5 5 4 4 4 4 5 5 5 5 6 6 7 7 7 7 7 7 8 8 8 8 8 8 8 8 8 9 9 10 10 9 9 9 10 10 10 10 10 10 10
5 4 4 4 4 4 4 4 4 4 5 5 5 5 6 6 6 7 7 7 7 7 8 8 8 8 8 8 8 8 9 9 10 10 9 9 9 9 9 9 10 10 10
5 4 4 4 4 4 4 4 4 4 4 4 5 5 5 6 6 6 6 7 7 7 7 7 7 8 8 8 8 8 8 9 9 10 10 9 9 9 9 10 10 10 10
Wind_Speed
11 14 16 16 13 9 5 2 1 1 4 8 10 11 12 14 15 16 15 15 14 14 14 14 13 13 13 13 13 12 12 11 11 11 12 12 11 11 11 10 9 10 12
11 13 14 16 14 11 8 4 2 1 2 5 8 10 11 13 14 15 16 15 15 14 14 14 14 13 13 13 13 12 12 11 11 11 11 11 10 10 10 9 7 9 11
11 13 13 15 15 13 9 7 4 2 1 3 6 8 10 11 13 14 15 15 15 15 15 14 14 14 14 13 13 12 12 12 12 11 10 9 10 10 10 10 9 11 11
11 12 13 16 15 13 11 8 6 4 3 2 4 6 8 10 11 13 14 15 15 15 15 15 14 14 14 14 13 13 12 12 11 11 8 7 8 10 10 10 10 11 11
11 12 13 16 16 14 12 10 7 6 4 3 3 5 7 9 11 11 12 14 15 15 15 15 15 14 14 14 14 14 13 12 11 10 7 7 7 10 10 10 11 11 10
11 12 12 15 16 15 12 12 9 7 5 4 3 4 5 7 9 11 12 12 13 14 15 15 15 15 14 14 15 14 14 13 12 9 8 8 8 10 10 11 11 11 10
11 12 12 14 15 15 13 11 10 8 6 5 4 4 5 6 8 9 11 12 12 13 14 15 15 15 15 15 15 15 14 13 11 9 8 8 8 10 11 11 11 11 10
11 11 11 11 13 13 13 11 10 9 7 6 5 4 5 6 7 8 10 12 13 13 14 14 15 15 16 16 16 16 15 14 11 10 9 8 9 10 11 11 11 10 10
10 10 9 10 10 11 11 11 10 9 8 6 6 5 5 6 7 8 9 10 12 13 13 14 15 16 16 16 17 16 16 14 12 9 9 8 10 12 12 12 11 11 10
9 9 9 9 10 10 9 9 9 8 8 6 5 5 5 5 7 9 9 9 9 12 14 14 15 16 16 16 17 17 16 14 12 10 9 9 11 12 12 12 11 11 11
9 9 9 9 9 9 9 8 9 7 6 6 4 4 4 5 6 8 9 9 10 10 11 14 15 16 16 16 17 17 16 13 12 10 9 10 13 13 13 13 12 12 11
11 11 9 9 9 9 8 7 7 6 5 6 5 5 5 5 5 6 7 8 10 10 11 12 14 15 15 13 15 16 13 13 11 10 9 11 14 14 14 13 13 13 12
11 11 10 9 9 8 6 6 5 5 5 6 5 5 5 5 5 5 4 6 8 10 9 9 10 12 12 11 11 13 13 12 10 10 11 13 15 15 14 14 14 14 12
11 11 10 9 8 8 7 5 5 4 4 5 5 5 4 3 4 4 4 5 5 6 7 7 7 9 11 12 13 13 13 11 10 10 11 14 15 15 14 14 14 14 13
11 10 10 10 9 8 7 6 5 5 5 6 6 6 5 4 5 5 5 5 6 6 7 7 8 9 9 11 11 12 13 13 13 12 10 14 16 16 16 15 15 15 15
11 10 10 10 9 9 7 6 6 6 6 7 6 7 6 5 5 5 6 6 6 6 7 8 9 9 8 8 11 12 12 12 13 13 12 13 16 16 16 16 16 15 15
10 10 10 10 10 9 9 8 7 6 7 7 7 8 8 7 7 7 6 7 7 7 8 7 8 7 8 8 11 12 11 12 12 13 13 12 14 16 16 16 17 16 16
10 10 10 9 10 10 9 8 7 7 7 7 8 8 8 8 8 7 7 7 7 7 7 7 7 7 8 9 9 10 10 10 13 13 12 12 12 13 15 16 16 16 16
9 9 10 10 10 11 10 8 8 8 7 7 8 8 8 9 9 8 8 7 8 7 7 8 8 8 8 9 9 9 9 10 11 11 13 13 13 13 13 15 16 15 16
9 9 10 11 11 11 9 8 7 8 7 7 8 9 10 9 9 9 8 9 9 7 8 9 10 9 8 8 8 8 9 9 10 11 12 12 12 13 13 14 14 14 15
10 10 10 11 11 9 8 8 7 7 8 8 9 10 11 10 10 9 8 9 9 9 10 11 9 10 8 7 6 6 6 9 11 11 11 11 13 13 13 14 13 12 12
11 11 11 11 11 11 9 8 8 9 8 9 9 10 11 11 11 10 10 9 9 9 11 11 9 8 7 8 7 6 5 6 9 10 10 11 12 11 13 14 14 13 12
11 12 11 12 13 12 11 8 7 7 7 8 9 10 10 11 11 11 12 10 11 11 10 11 12 11 10 9 8 6 6 6 5 8 11 12 12 11 12 12 13 14 14
12 12 12 12 13 12 10 9 9 9 9 11 10 10 10 11 11 11 12 11 11 11 11 12 12 11 12 10 9 8 8 5 5 5 8 11 13 13 13 11 13 13 14
11 11 11 12 12 12 10 9 10 11 11 10 10 11 11 10 12 12 12 11 12 11 12 13 13 13 12 11 9 8 8 7 8 6 7 10 10 11 12 12 11 11 13
11 10 11 12 13 13 12 10 11 13 13 12 12 11 10 9 11 12 12 12 13 11 12 13 13 15 14 14 11 10 9 8 9 8 8 10 10 9 11 10 10 11 11
Wind_Direction
350 350 357 353 356 1 359 6 7 200 187 181 178 179 179 180 181 178 175 174 172 170 168 164 160 156 153 150 147 144 144 142 136 132 131 127 123 121 120 121 125 114 109
345 351 2 1 1 2 6 359 356 353 199 190 186 184 182 183 184 183 181 180 179 177 174 169 164 161 159 155 151 148 146 140 137 134 131 130 128 127 125 123 117 113 116
353 356 3 3 3 3 6 12 2 345 272 203 194 192 188 185 187 188 185 185 183 182 179 175 170 167 164 162 159 154 149 145 142 139 146 144 136 135 132 128 124 124 122
354 357 4 5 2 4 4 6 5 358 339 267 212 198 195 191 188 189 191 190 188 186 183 180 175 169 167 166 163 157 153 149 147 155 165 151 145 139 140 138 136 132 127
354 357 4 4 2 0 3 360 2 354 343 323 257 213 202 199 194 191 192 195 194 190 186 183 178 174 172 170 167 163 157 154 156 172 159 153 148 144 147 142 140 136 132
351 354 360 1 358 358 359 1 356 356 344 326 307 249 218 211 207 200 194 192 194 194 191 186 181 178 177 175 173 168 162 159 169 171 164 161 154 150 154 148 144 141 140
345 349 352 358 356 356 354 354 354 350 349 333 312 293 246 224 214 211 204 196 192 194 193 190 186 184 181 179 178 172 166 167 180 173 172 168 156 156 160 156 150 145 143
339 342 345 351 351 350 352 346 346 342 339 341 326 306 278 240 220 219 215 205 198 195 195 193 192 189 186 184 181 175 169 174 184 180 178 174 159 168 164 160 156 153 148
338 338 341 340 341 343 343 344 337 338 330 325 326 315 297 268 236 224 218 212 206 201 198 198 196 193 190 188 183 178 174 181 190 185 183 181 169 176 171 164 162 159 154
335 336 334 335 335 333 333 336 332 330 324 313 314 315 302 281 253 232 221 215 208 206 203 201 199 197 193 189 185 181 176 184 197 190 191 179 172 182 178 172 169 167 164
331 333 330 329 329 329 326 328 324 316 315 300 291 299 287 267 255 240 231 224 214 208 207 206 202 200 193 189 186 180 178 196 198 199 196 174 183 188 184 179 177 175 174
325 326 326 323 322 323 323 324 319 310 311 296 286 284 277 270 257 255 238 224 217 213 207 207 206 200 195 193 187 182 196 203 199 200 193 179 191 191 189 186 184 182 183
318 320 318 319 317 316 317 316 318 314 308 298 280 277 279 275 259 249 242 222 218 213 208 203 201 204 202 196 192 197 203 201 202 198 191 186 196 195 193 193 192 190 190
313 317 315 314 314 313 311 306 303 305 302 300 283 272 275 272 261 248 240 239 228 220 215 207 207 209 209 203 199 202 203 202 202 200 191 186 198 201 201 200 198 197 196
311 312 314 311 311 311 306 302 297 295 293 291 282 263 259 259 257 252 241 235 232 227 219 214 211 210 212 207 204 204 205 205 203 201 193 189 200 205 207 206 204 202 200
308 309 310 312 308 306 301 299 293 289 288 287 279 263 252 254 253 254 245 237 235 231 224 219 219 212 211 211 208 207 206 206 207 205 202 194 201 208 210 211 208 206 204
306 307 310 309 310 305 300 295 291 285 283 283 277 264 252 248 251 251 246 239 234 233 229 223 221 217 212 212 214 210 207 209 209 208 207 204 203 207 212 213 212 211 211
305 305 306 305 307 301 295 289 286 283 279 277 279 267 255 246 245 249 245 241 235 233 227 223 218 219 214 211 214 212 210 210 213 210 210 210 208 206 207 210 214 215 214
303 303 303 301 300 299 293 282 278 277 272 273 275 269 260 248 244 245 243 241 233 229 227 223 218 218 219 213 213 216 214 211 213 211 212 212 213 211 208 203 210 216 218
303 299 298 297 297 298 293 283 277 274 271 272 272 266 264 253 246 245 241 239 233 226 226 222 221 217 221 215 212 219 220 215 214 213 215 214 213 214 214 209 209 212 214
305 299 298 297 297 296 290 284 279 278 277 273 270 268 264 256 247 243 240 237 232 227 225 222 222 216 215 206 206 217 231 224 219 216 215 215 213 212 215 212 212 212 210
304 301 296 296 296 292 285 280 274 275 273 272 273 268 265 255 247 242 237 235 233 230 226 222 218 217 217 205 202 197 215 225 220 218 215 215 216 211 214 214 212 211 211
303 301 298 295 295 290 284 280 279 278 277 277 275 268 262 257 250 244 239 234 233 228 224 220 214 215 213 213 210 203 206 219 207 209 216 216 214 212 213 214 214 213 212
305 305 302 297 292 290 282 276 276 278 277 278 277 267 264 256 250 244 239 235 234 231 223 221 216 216 213 213 215 223 229 222 205 200 209 215 214 214 213 213 214 213 213
305 305 303 301 299 300 291 283 280 276 274 274 274 271 268 260 251 243 239 234 233 232 224 220 218 214 215 215 215 216 224 227 218 213 208 205 211 213 213 213 213 212 212
310 307 305 304 304 304 297 287 279 279 273 273 273 273 270 265 255 244 238 238 233 231 226 220 220 217 216 217 217 215 218 219 213 215 212 202 208 209 209 211 214 212 210
Height
1504 1503 1501 1500 1500 1501 1501 1502 1502 1503 1503 1504 1505 1506 1507 1508 1509 1509 1510 1511 1511 1512 1512 1512 1513 1513 1513 1513 1514 1514 1515 1515 1515 1515 1515 1515 1515 1515 1516 1516 1517 1517 1516
1504 1503 1501 1500 1500 1500 1501 1501 1502 1502 1503 1504 1505 1506 1506 1507 1508 1509 1510 1510 1511 1512 1512 1512 1512 1513 1513 1513 1513 1514 1514 1515 1515 1515 1516 1516 1516 1516 1516 1516 1517 1517 1517
1503 1502 1501 1500 1500 1500 1500 1500 1501 1502 1503 1503 1504 1505 1506 1506 1507 1508 1509 1510 1510 1511 1512 1512 1512 1512 1513 1513 1513 1514 1514 1515 1515 1516 1516 1517 1516 1516 1516 1516 1517 1517 1517
1503 1502 1501 1500 1500 1499 1499 1500 1500 1501 1501 1502 1503 1504 1504 1505 1506 1507 1508 1508 1509 1510 1510 1511 1511 1512 1512 1512 1513 1513 1514 1514 1515 1515 1517 1517 1517 1516 1516 1516 1517 1517 1517
1503 1501 1500 1499 1499 1498 1498 1498 1499 1499 1500 1501 1502 1502 1503 1504 1505 1505 1506 1507 1508 1508 1509 1510 1510 1511 1511 1512 1512 1512 1513 1514 1514 1515 1516 1516 1517 1516 1516 1516 1516 1517 1517
1502 1500 1499 1498 1498 1497 1497 1497 1497 1497 1498 1499 1500 1500 1501 1502 1503 1503 1504 1505 1506 1507 1508 1508 1509 1510 1510 1511 1511 1512 1512 1513 1514 1515 1515 1516 1516 1516 1516 1516 1516 1517 1517
1500 1499 1497 1496 1496 1495 1495 1495 1495 1495 1496 1496 1497 1498 1499 1500 1500 1501 1502 1503 1503 1504 1506 1507 1507 1508 1509 1509 1510 1511 1511 1512 1513 1514 1515 1515 1515 1515 1515 1516 1516 1516 1517
1498 1496 1495 1494 1493 1493 1492 1492 1492 1492 1493 1493 1494 1495 1496 1497 1497 1498 1499 1500 1501 1502 1503 1504 1505 1506 1507 1508 1508 1509 1510 1511 1512 1513 1514 1514 1514 1514 1515 1515 1516 1516 1516
1495 1494 1493 1492 1491 1490 1490 1489 1489 1489 1490 1490 1490 1491 1492 1493 1494 1495 1496 1497 1498 1499 1500 1501 1503 1504 1505 1506 1507 1508 1508 1510 1511 1512 1512 1513 1513 1513 1514 1514 1515 1515 1516
1493 1491 1490 1489 1488 1487 1486 1486 1486 1486 1486 1487 1487 1487 1488 1489 1490 1491 1493 1494 1494 1496 1497 1498 1500 1501 1502 1503 1504 1506 1507 1508 1510 1510 1511 1511 1511 1512 1513 1513 1514 1514 1515
1490 1488 1487 1485 1484 1483 1483 1482 1482 1482 1482 1483 1483 1484 1484 1485 1486 1487 1488 1490 1491 1492 1493 1495 1496 1498 1499 1501 1502 1503 1504 1506 1507 1508 1509 1509 1509 1510 1511 1512 1512 1513 1514
1486 1485 1483 1482 1481 1480 1479 1478 1478 1477 1478 1478 1479 1479 1480 1481 1482 1483 1484 1485 1487 1488 1490 1491 1493 1494 1496 1497 1498 1500 1501 1503 1504 1505 1506 1506 1507 1509 1509 1510 1511 1511 1512
1483 1481 1480 1478 1477 1476 1475 1474 1473 1472 1472 1473 1474 1475 1475 1476 1477 1478 1479 1480 1482 1484 1485 1487 1488 1490 1491 1493 1494 1496 1498 1500 1501 1502 1502 1503 1505 1506 1507 1508 1509 1509 1510
1479 1477 1476 1475 1473 1472 1471 1470 1469 1467 1467 1468 1469 1469 1470 1470 1471 1473 1474 1475 1477 1478 1480 1481 1483 1485 1487 1488 1490 1492 1493 1495 1497 1498 1499 1500 1502 1503 1505 1506 1506 1507 1508
1476 1473 1472 1470 1469 1468 1467 1465 1464 1463 1463 1463 1463 1463 1464 1465 1466 1467 1468 1470 1471 1472 1474 1476 1478 1480 1482 1484 1485 1487 1489 1491 1492 1494 1495 1497 1499 1500 1502 1503 1504 1505 1506
1472 1470 1468 1466 1465 1463 1462 1461 1460 1459 1458 1458 1457 1457 1458 1459 1460 1461 1462 1464 1465 1467 1468 1470 1472 1475 1476 1478 1480 1482 1484 1486 1488 1490 1491 1493 1495 1497 1498 1500 1501 1502 1503
1468 1466 1463 1461 1460 1459 1457 1456 1455 1454 1453 1452 1452 1452 1452 1453 1454 1455 1456 1458 1459 1461 1463 1464 1466 1469 1471 1473 1474 1476 1479 1481 1483 1485 1487 1489 1491 1492 1494 1496 1497 1499 1500
1465 1462 1459 1457 1455 1454 1452 1451 1450 1449 1448 1447 1446 1446 1446 1447 1448 1449 1450 1451 1453 1455 1456 1458 1460 1462 1464 1467 1469 1471 1473 1476 1478 1480 1482 1484 1486 1488 1490 1492 1494 1495 1497
1461 1458 1455 1453 1451 1449 1447 1445 1444 1443 1442 1441 1441 1440 1440 1441 1442 1442 1443 1445 1447 1448 1450 1452 1454 1456 1459 1461 1463 1465 1467 1470 1472 1475 1477 1479 1481 1483 1485 1487 1489 1491 1493
1457 1455 1452 1449 1447 1444 1442 1440 1438 1437 1436 1436 1435 1434 1433 1434 1435 1436 1437 1438 1440 1441 1443 1445 1448 1450 1453 1455 1458 1460 1462 1464 1467 1468 1471 1474 1476 1478 1480 1482 1484 1486 1488
1453 1450 1447 1445 1442 1439 1437 1434 1431 1430 1430 1429 1428 1427 1427 1428 1428 1430 1430 1431 1433 1435 1436 1439 1441 1444 1446 1449 1453 1455 1457 1458 1460 1463 1465 1468 1470 1473 1475 1477 1479 1481 1483
1449 1446 1442 1439 1436 1434 1432 1429 1426 1424 1423 1423 1422 1421 1420 1421 1422 1422 1423 1424 1426 1428 1430 1432 1434 1437 1439 1443 1446 1449 1452 1455 1453 1456 1459 1462 1465 1467 1469 1472 1474 1476 1478
1445 1441 1437 1434 1431 1428 1426 1423 1420 1419 1417 1416 1415 1414 1414 1415 1415 1416 1417 1418 1419 1421 1422 1424 1427 1430 1432 1436 1439 1442 1445 1446 1448 1450 1452 1455 1459 1461 1463 1466 1469 1471 1473
1441 1437 1432 1429 1425 1422 1420 1417 1415 1413 1411 1409 1409 1407 1407 1407 1408 1408 1409 1411 1412 1414 1414 1416 1419 1422 1425 1428 1432 1434 1439 1439 1442 1443 1447 1449 1452 1455 1458 1461 1463 1465 1468
1437 1432 1428 1425 1421 1417 1415 1412 1409 1407 1405 1403 1402 1400 1400 1400 1400 1401 1402 1403 1404 1406 1406 1409 1411 1414 1418 1421 1424 1427 1431 1433 1435 1437 1439 1442 1446 1448 1451 1454 1457 1460 1463
1433 1428 1424 1420 1416 1412 1409 1406 1403 1401 1399 1397 1395 1394 1393 1393 1393 1393 1394 1395 1397 1398 1399 1401 1404 1407 1410 1413 1417 1420 1423 1426 1428 1431 1433 1435 1439 1442 1445 1448 1451 1454 1457